Location: Sweet Grass
(48.9965°N, 111.9649°W)
Time: 07:02:44
(UTC+00:00)

EO-79 - Pass Details

Date: 02 April 2023
Orbit: 578 x 593 km, 98.0° (Epoch: 02 June)

Event Time Altitude Azimuth Distance (km) Brightness Sun altitude
Rises 09:09:28 0° 21° (NNE) 2,831 ? -32.0°
Reaches altitude 10° 09:11:48 10° 30° (NNE) 1,921 ? -31.9°
Enters shadow 09:13:59 25° 52° (NE) 1,187 ? -31.7°
